Location: Wildlife_Club
(35.6000°N, 81.4330°W)
Time: 05:35:17
(UTC-04:00)

Explorer 7 - All Passes

Search period start: 24 June 2019 00:00
Search period end: 04 July 2019 00:00
Orbit: 485 x 680 km, 50.3° (Epoch: 23 June)

Date Brightness Start Highest point End Pass type
(mag) Time Alt. Az. Time Alt. Az. Time Alt. Az.
24 Jun - 07:57:07 10° SSW 08:00:50 36° SE 08:04:47 10° ENE daylight
24 Jun - 09:37:32 10° W 09:41:23 34° NNW 09:45:30 10° NE daylight
24 Jun - 11:20:42 10° NW 11:23:06 14° N 11:25:34 10° NNE daylight
24 Jun - 13:02:39 10° NNW 13:05:18 15° NNE 13:08:00 10° NE daylight
24 Jun - 14:42:35 10° NW 14:47:00 36° NNE 14:51:31 10° E daylight
24 Jun - 16:23:06 10° WNW 16:27:43 44° SW 16:32:22 10° SSE daylight
25 Jun - 08:01:47 10° SW 08:05:47 65° SE 08:10:04 10° NE daylight
25 Jun - 09:43:12 10° W 09:46:41 24° NNW 09:50:22 10° NNE daylight
25 Jun - 11:26:35 10° NNW 11:28:37 13° N 11:30:42 10° NNE daylight
25 Jun - 13:07:38 10° NNW 13:10:46 17° NNE 13:13:58 10° ENE daylight
25 Jun - 14:47:31 10° NW 14:52:12 53° NE 14:57:00 10° ESE daylight
25 Jun - 16:28:35 10° WNW 16:32:38 27° SW 16:36:43 10° S daylight
26 Jun - 06:28:55 10° SSE 06:30:51 13° SE 06:32:52 10° E daylight
26 Jun - 08:06:48 10° SW 08:10:50 73° NW 08:15:11 10° NE daylight
26 Jun - 09:49:02 10° WNW 09:52:04 18° NNW 09:55:14 10° NNE daylight
26 Jun - 11:32:12 10° NNW 11:34:08 12° N 11:36:08 10° NNE daylight
26 Jun - 13:12:32 10° NNW 13:16:10 22° NNE 13:19:53 10° ENE daylight
26 Jun - 14:52:32 10° NW 14:57:19 83° NE 15:02:14 10° SE daylight
26 Jun - 16:34:35 10° W 16:37:30 16° SW 16:40:25 10° SSW daylight
27 Jun - 06:32:29 10° S 06:35:41 24° SE 06:39:02 10° ENE daylight
27 Jun - 08:12:05 10° WSW 08:15:59 44° NNW 08:20:10 10° NE daylight
27 Jun - 09:55:00 10° NW 09:57:31 15° NNW 10:00:07 10° NNE daylight
27 Jun - 11:37:29 10° NNW 11:39:40 13° N 11:41:54 10° NE daylight
27 Jun - 13:17:25 10° NNW 13:21:29 29° NNE 13:25:41 10° E daylight
27 Jun - 14:57:39 10° WNW 15:02:22 62° SW 15:07:12 10° SE daylight
28 Jun - 06:36:51 10° SSW 06:40:35 43° SE 06:44:33 10° ENE daylight
28 Jun - 08:17:38 10° W 08:21:15 29° NNW 08:25:03 10° NNE daylight
28 Jun - 10:00:59 10° NW 10:03:00 13° N 10:05:04 10° NNE daylight
28 Jun - 11:42:32 10° NNW 11:45:09 15° NNE 11:47:51 10° NE daylight
28 Jun - 13:22:19 10° NW 13:26:44 40° NNE 13:31:19 10° ESE daylight
28 Jun - 15:02:57 10° WNW 15:07:21 37° SW 15:11:50 10° SSE daylight
29 Jun - 06:41:39 10° SW 06:45:35 78° SE 06:49:46 10° NE daylight
29 Jun - 08:23:22 10° WNW 08:26:34 21° NNW 08:29:54 10° NNE daylight
29 Jun - 10:06:49 10° NNW 10:08:31 12° N 10:10:15 10° NNE daylight
29 Jun - 11:47:27 10° NNW 11:50:36 18° NNE 11:53:50 10° ENE daylight
29 Jun - 13:27:16 10° NW 13:31:54 61° NE 13:36:43 10° ESE daylight
29 Jun - 15:08:34 10° W 15:12:15 22° SW 15:16:00 10° S daylight
30 Jun - 05:08:14 10° SSE 05:10:35 16° SE 05:13:01 10° E visible
30 Jun - 06:46:46 10° WSW 06:50:40 60° NW 06:54:49 10° NE daylight
30 Jun - 08:29:17 10° WNW 08:31:57 16° NNW 08:34:44 10° NNE daylight
30 Jun - 10:12:20 10° NNW 10:14:02 12° N 10:15:48 10° NNE daylight
30 Jun - 11:52:20 10° NNW 11:55:58 23° NNE 11:59:45 10° ENE daylight
30 Jun - 13:32:18 10° NW 13:37:00 85° SW 13:41:52 10° SE daylight
30 Jun - 15:14:57 10° W 15:17:06 13° SW 15:19:16 10° SSW daylight
01 Jul - 05:12:07 10° S 05:15:26 28° SE 05:18:55 10° ENE visible
01 Jul - 06:52:09 10° W 06:55:50 37° NNW 06:59:46 10° NE daylight
01 Jul - 08:35:19 10° NW 08:37:25 13° NNW 08:39:35 10° NNE daylight
01 Jul - 10:17:29 10° NNW 10:19:33 13° N 10:21:41 10° NE daylight
01 Jul - 11:57:11 10° NNW 12:01:16 31° NNE 12:05:30 10° E daylight
01 Jul - 13:37:29 10° WNW 13:42:01 51° SW 13:46:44 10° SSE daylight
02 Jul - 05:16:39 10° SSW 05:20:22 51° SE 05:24:19 10° ENE visible
02 Jul - 06:57:46 10° W 07:01:07 25° NNW 07:04:37 10° NNE daylight
02 Jul - 08:41:20 10° NNW 08:42:55 12° N 08:44:32 10° NNE daylight
02 Jul - 10:22:25 10° NNW 10:25:01 15° NNE 10:27:42 10° NE daylight
02 Jul - 12:02:06 10° NW 12:06:28 45° NE 12:11:03 10° ESE daylight
02 Jul - 13:42:52 10° WNW 13:46:59 31° SW 13:51:13 10° SSE daylight
03 Jul - 05:21:33 10° SW 05:25:24 86° NW 05:29:28 10° NE visible
03 Jul - 07:03:36 10° WNW 07:06:27 18° NNW 07:09:26 10° NNE daylight
03 Jul - 08:47:07 10° NNW 08:48:26 11° N 08:49:46 10° NNE daylight
03 Jul - 10:27:17 10° NNW 10:30:26 19° NNE 10:33:42 10° ENE daylight
03 Jul - 12:07:04 10° NW 12:11:37 70° NE 12:16:23 10° ESE daylight
03 Jul - 13:48:40 10° W 13:51:52 18° SW 13:55:10 10° S daylight
